Location: Peebles
(55.6412°N, 3.1714°W)
Time: 23:27:42
(UTC+01:00)

CENTAUR R/B - Pass Details

Date: 26 January 2022
Orbit: 716 x 1471 km, 63.4° (Epoch: 08 May)

Event Time Altitude Azimuth Distance (km) Brightness Sun altitude
Rises 20:44:12 0° 296° (WNW) 3,855 6.7 -34.6°
Reaches altitude 10° 20:46:45 10° 301° (WNW) 3,004 5.8 -34.9°
Enters shadow 20:53:18 54° 1° (N) 1,510 3.4 -35.8°
